Weather History for Avoca, PA

Change the Weather History Date:

Thursday, October 17, 2013

  Actual Average Record
Temperature  
Mean Temperature 65 °F 50 °F  
Max Temperature 73 °F 60 °F 87 °F (1908)
Min Temperature 57 °F 41 °F 24 °F (1937)
Degree Days  
Heating Degree Days 0 15  
Month to date heating degree days 62 204  
Since 1 July heating degree days 224 366  
Cooling Degree Days 0 0  
Month to date cooling degree days 24 0  
Year to date cooling degree days 795 576  
Growing Degree Days 16 (Base 50)    
Moisture  
Dew Point 55 °F    
Average Humidity 69    
Maximum Humidity 93    
Minimum Humidity 44    
Precipitation  
Precipitation 0.22 in 0.10 in 1.35 in (1989)
Month to date precipitation 1.20 1.93  
Year to date precipitation 21.12 31.03  
Sea Level Pressure  
Sea Level Pressure 29.79 in    
Wind  
Wind Speed 5 mph (WSW)    
Max Wind Speed 16 mph    
Max Gust Speed 26 mph    
Visibility 9 miles    
Events Rain    
T = Trace of Precipitation, MM = Missing Value Source: NWS Daily Summary

Daily Weather History Graph

Daily Weather History Graph

Search for Another Location

Airport:

Trip Planner

Search our weather history database for the weather conditions in past years. The results will help you decide how hot, cold, wet, or windy it might be!

Date:

Astronomy

Oct. 17, 2013 Rise Set
Actual Time 7:17 AM EDT 6:18 PM EDT
Civil Twilight 6:49 AM EDT 6:46 PM EDT
Nautical Twilight 6:17 AM EDT 7:18 PM EDT
Astronomical Twilight 5:45 AM EDT 7:50 PM EDT
Moon 5:31 PM EDT (10/17) 5:46 AM EDT (10/17)
Length of Visible Light 11h 57m
Length of Day
11h 01m
Waxing Gibbous, 98% of the Moon is Illuminated
Oct 17
Waxing Gibbous
Oct 18
Full
Oct 26
Last Quarter
Nov 3
New
Nov 10
First Quarter

Hourly Weather History & Observations

Time (EDT) Temp. Dew Point Humidity Pressure Visibility Wind Dir Wind Speed Gust Speed Precip Events Conditions
12:54 AM 61.0 °F 55.9 °F 83% 29.88 in 8.0 mi WSW 3.5 mph - N/A   Overcast
1:54 AM 61.0 °F 55.0 °F 81% 29.87 in 8.0 mi West 3.5 mph - N/A   Overcast
2:54 AM 60.1 °F 55.0 °F 83% 29.86 in 8.0 mi Calm Calm - N/A   Overcast
3:54 AM 60.1 °F 55.0 °F 83% 29.85 in 9.0 mi Calm Calm - N/A   Overcast
4:29 AM 60.8 °F 55.4 °F 82% 29.86 in 9.0 mi Calm Calm - N/A   Overcast
4:54 AM 60.1 °F 55.9 °F 86% 29.85 in 8.0 mi Calm Calm - N/A   Overcast
5:04 AM 60.8 °F 55.4 °F 82% 29.87 in 8.0 mi Calm Calm - N/A   Overcast
5:54 AM 60.1 °F 57.0 °F 90% 29.87 in 4.0 mi SSW 4.6 mph - N/A   Overcast
6:19 AM 60.8 °F 57.2 °F 88% 29.89 in 6.0 mi NW 10.4 mph - 0.00 in Rain Light Rain
6:46 AM 60.8 °F 55.4 °F 82% 29.90 in 10.0 mi North 3.5 mph - 0.00 in   Overcast
6:54 AM 60.1 °F 55.0 °F 83% 29.89 in 10.0 mi Calm Calm - 0.00 in   Overcast
7:46 AM 60.8 °F 53.6 °F 77% 29.90 in 10.0 mi Calm Calm - N/A   Overcast
7:54 AM 60.1 °F 53.1 °F 78% 29.89 in 10.0 mi Calm Calm - N/A   Overcast
8:54 AM 62.1 °F 52.0 °F 70% 29.91 in 10.0 mi WNW 4.6 mph - N/A   Mostly Cloudy
9:54 AM 62.1 °F 52.0 °F 70% 29.91 in 10.0 mi Calm Calm - N/A   Overcast
10:54 AM 66.0 °F 51.1 °F 59% 29.88 in 10.0 mi West 5.8 mph - N/A   Clear
11:54 AM 68.0 °F 51.1 °F 55% 29.87 in 10.0 mi WSW 5.8 mph - N/A   Partly Cloudy
12:54 PM 70.0 °F 50.0 °F 49% 29.83 in 10.0 mi WSW 10.4 mph - N/A   Clear
1:54 PM 72.0 °F 48.0 °F 43% 29.80 in 10.0 mi SW 8.1 mph 17.3 mph N/A   Clear
2:54 PM 71.1 °F 48.9 °F 45% 29.79 in 10.0 mi WSW 12.7 mph - N/A   Partly Cloudy
3:54 PM 70.0 °F 48.9 °F 47% 29.77 in 10.0 mi Variable 6.9 mph - N/A   Partly Cloudy
4:54 PM 69.1 °F 50.0 °F 51% 29.75 in 10.0 mi SW 4.6 mph - 0.00 in   Overcast
5:54 PM 68.0 °F 52.0 °F 56% 29.72 in 10.0 mi Variable 4.6 mph - N/A   Overcast
6:54 PM 64.9 °F 55.9 °F 73% 29.69 in 10.0 mi Calm Calm - 0.00 in   Overcast
7:54 PM 64.9 °F 57.9 °F 78% 29.67 in 10.0 mi South 5.8 mph - 0.00 in   Overcast
8:28 PM 66.2 °F 57.2 °F 73% 29.67 in 10.0 mi Variable 6.9 mph - N/A   Overcast
8:42 PM 66.2 °F 57.2 °F 73% 29.66 in 10.0 mi Variable 4.6 mph 16.1 mph N/A   Overcast
8:54 PM 66.0 °F 57.9 °F 75% 29.65 in 10.0 mi South 10.4 mph 18.4 mph N/A   Overcast
9:54 PM 64.9 °F 59.0 °F 81% 29.63 in 9.0 mi South 16.1 mph 24.2 mph 0.00 in Rain Light Rain
10:30 PM 64.4 °F 60.8 °F 88% 29.68 in 1.8 mi WSW 13.8 mph 18.4 mph 0.07 in Rain Heavy Rain
10:41 PM 62.6 °F 60.8 °F 94% 29.68 in 3.0 mi SW 13.8 mph 20.7 mph 0.22 in Rain Light Rain
10:54 PM 63.0 °F 61.0 °F 93% 29.67 in 9.0 mi SW 10.4 mph 18.4 mph 0.22 in Rain Light Rain
11:26 PM 62.6 °F 60.8 °F 94% 29.71 in 10.0 mi WSW 9.2 mph - 0.00 in   Overcast
11:32 PM 62.6 °F 60.8 °F 94% 29.71 in 10.0 mi West 8.1 mph - 0.00 in   Overcast
11:40 PM 62.6 °F 57.2 °F 82% 29.71 in 10.0 mi WNW 10.4 mph - 0.00 in   Overcast
11:48 PM 60.8 °F 55.4 °F 82% 29.72 in 10.0 mi WNW 9.2 mph - 0.00 in   Mostly Cloudy
11:54 PM 60.1 °F 55.9 °F 86% 29.70 in 10.0 mi WNW 6.9 mph - 0.00 in   Overcast